EA5ZF Weather Reports


time (UTC)temp
C
wind
direction
speed
KPH
gust
KPH
rain 1hr
cm
rain 24hr
cm
rain mn
cm
humidity
%
barometer
mb
20260506203522 16 0.0 1.6 0.00 0.00 0.00 73 1013.5
20260506202522 16 338 1.6 3.2 0.00 0.00 0.00 72 1013.5
20260506201522 16 0.0 1.6 0.00 0.00 0.00 71 1013.4
20260506200522 16 0.0 1.6 0.00 0.00 0.00 71 1013.3
20260506195522 16 0.0 0.0 0.00 0.00 0.00 70 1013.1
20260506194523 16 0.0 1.6 0.00 0.00 0.00 69 1013.0
20260506193522 16 0.0 1.6 0.00 0.00 0.00 68 1012.9
20260506192520 17 0.0 3.2 0.00 0.00 0.00 69 1012.9
20260506191523 17 0.0 3.2 0.00 0.00 0.00 68 1012.8
20260506190522 17 135 3.2 6.4 0.00 0.00 0.00 68 1012.7
20260506185522 17 135 3.2 8.0 0.00 0.00 0.00 64 1012.6
20260506184522 17 135 1.6 4.8 0.00 0.00 0.00 63 1012.5
20260506183522 18 113 3.2 6.4 0.00 0.00 0.00 60 1012.4
20260506182522 18 113 3.2 8.0 0.00 0.00 0.00 59 1012.1
20260506181522 18 113 1.6 4.8 0.00 0.00 0.00 54 1012.1
20260506180522 18 0.0 3.2 0.00 0.00 0.00 55 1012.0
20260506175542 18 0.0 0.0 0.00 0.00 0.00 57 1012.0
20260506174521 18 0.0 3.2 0.00 0.00 0.00 58 1012.0
20260506173521 18 225 1.6 6.4 0.00 0.00 0.00 57 1012.0
20260506172521 18 113 1.6 6.4 0.00 0.00 0.00 59 1012.0
20260506171522 18 113 3.2 9.7 0.00 0.00 0.00 61 1012.0
20260506170522 18 135 4.8 11.3 0.00 0.00 0.00 62 1012.0
20260506165521 18 135 4.8 9.7 0.00 0.00 0.00 60 1012.0
20260506164541 18 113 3.2 11.3 0.00 0.00 0.00 63 1011.9
20260506163521 18 113 1.6 6.4 0.00 0.00 0.00 62 1012.0
20260506162522 18 135 8.0 19.3 0.00 0.00 0.00 62 1012.2
20260506161521 18 113 6.4 17.7 0.00 0.00 0.00 62 1012.2
20260506160521 18 135 4.8 12.9 0.00 0.00 0.00 63 1012.3
20260506155602 18 113 4.8 17.7 0.00 0.00 0.00 64 1012.4
20260506154541 18 68 4.8 11.3 0.00 0.00 0.00 64 1012.4
20260506153521 19 113 4.8 12.9 0.00 0.00 0.00 62 1012.4
20260506152522 18 113 6.4 16.1 0.00 0.00 0.00 63 1012.2
20260506151521 19 135 6.4 14.5 0.00 0.00 0.00 61 1012.3
20260506150521 19 45 3.2 9.7 0.00 0.00 0.00 60 1012.3
20260506145541 20 113 1.6 11.3 0.00 0.00 0.00 61 1012.3
20260506144521 19 315 1.6 8.0 0.00 0.00 0.00 62 1012.4
20260506143525 19 135 3.2 14.5 0.00 0.00 0.00 61 1012.3
20260506142525 20 0.0 4.8 0.00 0.00 0.00 61 1012.5
20260506141521 19 135 3.2 11.3 0.00 0.00 0.00 61 1012.6
20260506140601 19 45 6.4 14.5 0.00 0.00 0.00 62 1012.8
20260506135521 19 113 6.4 11.3 0.00 0.00 0.00 63 1012.7
20260506134541 19 113 6.4 14.5 0.00 0.00 0.00 64 1012.8
20260506133541 19 113 4.8 14.5 0.00 0.00 0.00 64 1012.9
20260506132521 19 135 4.8 17.7 0.00 0.00 0.00 65 1012.8
20260506131521 20 113 3.2 9.7 0.00 0.00 0.00 62 1012.8
20260506130521 19 135 3.2 11.3 0.00 0.00 0.00 60 1012.7
20260506125521 18 68 3.2 11.3 0.00 0.00 0.00 62 1012.9
20260506124541 19 135 8.0 19.3 0.00 0.00 0.00 61 1012.9
20260506123641 19 45 6.4 19.3 0.00 0.00 0.00 62 1013.0
20260506122521 20 113 4.8 17.7 0.00 0.00 0.00 60 1012.9
20260506121521 20 113 6.4 14.5 0.00 0.00 0.00 59 1013.1
20260506120521 20 158 3.2 11.3 0.00 0.00 0.00 57 1013.0
20260506115521 20 135 8.0 14.5 0.00 0.00 0.00 56 1013.1
20260506114521 19 113 8.0 17.7 0.00 0.00 0.00 60 1013.1
20260506113521 20 113 4.8 16.1 0.00 0.00 0.00 57 1013.0
20260506112521 19 113 4.8 9.7 0.00 0.00 0.00 57 1013.1
20260506111521 19 113 6.4 17.7 0.00 0.00 0.00 58 1013.1
20260506110541 19 135 8.0 19.3 0.00 0.00 0.00 58 1013.1
20260506105541 20 113 8.0 19.3 0.00 0.00 0.00 56 1013.2
20260506104521 20 113 8.0 17.7 0.00 0.00 0.00 55 1013.2
20260506103541 20 135 8.0 14.5 0.00 0.00 0.00 54 1013.2
20260506102521 20 158 6.4 14.5 0.00 0.00 0.00 55 1013.2
20260506101601 19 113 6.4 16.1 0.00 0.00 0.00 56 1013.2
20260506100521 20 135 3.2 9.7 0.00 0.00 0.00 57 1013.3
20260506095521 19 113 6.4 14.5 0.00 0.00 0.00 59 1013.4
20260506094521 19 158 4.8 11.3 0.00 0.00 0.00 59 1013.4
20260506093520 18 113 8.0 17.7 0.00 0.00 0.00 61 1013.3
20260506092524 18 135 8.0 16.1 0.00 0.00 0.00 62 1013.2
20260506091521 18 135 8.0 14.5 0.00 0.00 0.00 62 1013.1
20260506090520 19 113 3.2 12.9 0.00 0.00 0.00 61 1013.2
20260506085541 19 135 4.8 11.3 0.00 0.00 0.00 59 1013.2
20260506084541 19 0.0 3.2 0.00 0.00 0.00 53 1013.2
20260506083521 18 0.0 4.8 0.00 0.00 0.00 54 1013.3
20260506082525 18 45 1.6 4.8 0.00 0.00 0.00 56 1013.3
20260506081520 18 0.0 4.8 0.00 0.00 0.00 58 1013.2
20260506080528 18 0.0 4.8 0.00 0.00 0.00 59 1013.2
20260506073525 17 113 3.2 6.4 0.00 0.00 0.00 62 1013.1
20260506072542 18 113 3.2 8.0 0.00 0.00 0.00 59 1013.1
20260506071521 18 0.0 0.0 0.00 0.00 0.00 60 1013.0
20260506070523 17 0.0 0.0 0.00 0.00 0.00 64 1013.0
20260506061522 14 0.0 0.0 0.00 0.00 0.00 72 1012.9
20260506060522 14 135 1.6 6.4 0.00 0.00 0.00 71 1012.9
20260506050522 12 0.0 0.0 0.00 0.00 0.00 80 1012.5
20260506044522 12 0.0 0.0 0.00 0.00 0.00 80 1012.4
20260506043522 12 0.0 1.6 0.00 0.00 0.00 80 1012.3
20260506042522 12 0.0 0.0 0.00 0.00 0.00 80 1012.3
20260506041522 12 0.0 1.6 0.00 0.00 0.00 79 1012.3
20260506040522 12 0.0 0.0 0.00 0.00 0.00 79 1012.3
20260506035523 12 0.0 3.2 0.00 0.00 0.00 79 1012.3
20260506034522 12 0.0 1.6 0.00 0.00 0.00 81 1012.4
20260506033522 12 0.0 1.6 0.00 0.00 0.00 80 1012.4
20260506032523 12 0.0 4.8 0.00 0.00 0.00 80 1012.4
20260506031523 12 0.0 0.0 0.00 0.00 0.00 79 1012.3
20260506030522 12 0.0 0.0 0.00 0.00 0.00 78 1012.3
20260506025522 12 0.0 1.6 0.00 0.00 0.00 77 1012.3
20260506024524 12 0.0 1.6 0.00 0.00 0.00 75 1012.3
20260506023521 12 0.0 0.0 0.00 0.00 0.00 76 1012.2
20260506022521 13 0.0 0.0 0.00 0.00 0.00 75 1012.3
20260506021526 13 0.0 3.2 0.00 0.00 0.00 74 1012.2
20260506020522 13 0.0 0.0 0.00 0.00 0.00 76 1012.3
20260506015528 13 0.0 0.0 0.00 0.00 0.00 74 1012.3
20260506014602 13 0.0 0.0 0.00 0.00 0.00 72 1012.3
20260506013522 13 315 1.6 3.2 0.00 0.00 0.00 75 1012.3
20260506012522 13 0.0 1.6 0.00 0.00 0.00 75 1012.3
20260506011522 13 0.0 1.6 0.00 0.00 0.00 75 1012.3
20260506010602 13 0.0 6.4 0.00 0.00 0.00 75 1012.4
20260506005524 14 225 1.6 8.0 0.00 0.00 0.00 72 1012.5
20260506004521 15 248 1.6 9.7 0.00 0.00 0.00 70 1012.6
20260506003522 15 248 1.6 4.8 0.00 0.00 0.00 69 1012.6
20260506002522 15 0.0 3.2 0.00 0.00 0.00 69 1012.7
20260506001542 15 0.0 4.8 0.00 0.00 0.00 69 1012.7
20260506000543 15 225 1.6 4.8 0.00 0.00 0.00 69 1012.7
20260505235522 15 203 1.6 4.8 0.00 0.00 0.00 70 1012.8
20260505234525 15 0.0 1.6 0.00 0.00 0.00 71 1012.8
20260505233526 15 0.0 1.6 0.00 0.00 0.00 73 1012.8
20260505232523 15 0.0 0.0 0.00 0.00 0.00 73 1012.9
20260505231622 15 0.0 3.2 0.00 0.00 0.00 72 1012.8
20260505230522 15 0.0 1.6 0.00 0.00 0.00 71 1012.7
20260505225602 15 0.0 1.6 0.00 0.00 0.00 71 1012.6
20260505224522 15 0.0 0.0 0.00 0.00 0.00 70 1012.6
20260505223542 15 0.0 0.0 0.00 0.00 0.00 69 1012.8
20260505222542 15 0.0 1.6 0.00 0.00 0.00 68 1012.8
20260505221523 15 0.0 0.0 0.00 0.00 0.00 68 1012.8
20260505220522 15 0.0 1.6 0.00 0.00 0.00 68 1012.9
20260505215522 15 0.0 3.2 0.00 0.00 0.00 68 1013.0
20260505214522 15 0.0 3.2 0.00 0.00 0.00 68 1013.0
20260505213523 16 338 1.6 4.8 0.00 0.00 0.00 67 1013.0
20260505212523 16 0.0 3.2 0.00 0.00 0.00 68 1013.1
20260505211522 16 315 1.6 6.4 0.00 0.00 0.00 68 1013.3
20260505210522 16 315 3.2 8.0 0.00 0.00 0.00 68 1013.3
20260505205522 16 338 1.6 8.0 0.00 0.00 0.00 67 1013.3
20260505204542 16 338 4.8 9.7 0.00 0.00 0.00 68 1013.2